Weather History for Ozark, AL

Change the Weather History Date:

Wednesday, December 5, 2012

  Actual Average Record
Temperature  
Mean Temperature 62 °F -  
Max Temperature 75 °F 62 °F 81 °F (2013)
Min Temperature 49 °F 41 °F 28 °F (2000)
Degree Days  
Heating Degree Days 3    
Growing Degree Days 12 (Base 50)    
Moisture  
Dew Point 53 °F    
Average Humidity 75    
Maximum Humidity 97    
Minimum Humidity 43    
Precipitation  
Precipitation 0.00 in - - ()
Sea Level Pressure  
Sea Level Pressure 30.14 in    
Wind  
Wind Speed 3 mph (ENE)    
Max Wind Speed 7 mph    
Max Gust Speed -    
Visibility 10 miles    
Events      
Averages and records for this station are not official NWS values.
T = Trace of Precipitation, MM = Missing Value Source: NWS Daily Summary

Daily Weather History Graph

Daily Weather History Graph

Search for Another Location

Airport:

Trip Planner

Search our weather history database for the weather conditions in past years. The results will help you decide how hot, cold, wet, or windy it might be!

Date:

Astronomy

Dec. 05, 2012 Rise Set
Actual Time 6:27 AM CST 4:39 PM CST
Civil Twilight 6:00 AM CST 5:06 PM CST
Nautical Twilight 5:30 AM CST 5:36 PM CST
Astronomical Twilight 5:01 AM CST 6:05 PM CST
Moon 11:09 PM CST (12/5) 11:07 AM CST (12/5)
Length of Visible Light 11h 05m
Length of Day
10h 12m
Waning Gibbous, 59% of the Moon is Illuminated
Dec 5
Waning Gibbous
Dec 6
Last Quarter
Dec 13
New
Dec 19
First Quarter
Dec 28
Full

Hourly Weather History & Observations

Time (CST) Temp. Dew Point Humidity Pressure Visibility Wind Dir Wind Speed Gust Speed Precip Events Conditions
12:55 AM 54.5 °F 52.7 °F 94% 30.19 in 10.0 mi NNE 4.6 mph - N/A   Clear
1:55 AM 54.3 °F 52.2 °F 92% 30.19 in 10.0 mi Calm Calm - N/A   Clear
2:55 AM 52.7 °F 51.1 °F 94% 30.17 in 10.0 mi NE 3.5 mph - N/A   Clear
3:55 AM 51.4 °F 50.4 °F 96% 30.17 in 10.0 mi NE 5.8 mph - N/A   Clear
4:55 AM 51.3 °F 50.2 °F 96% 30.19 in 10.0 mi Calm Calm - N/A   Clear
5:55 AM 49.8 °F 48.9 °F 97% 30.19 in 10.0 mi Calm Calm - N/A   Clear
6:55 AM 50.4 °F 49.6 °F 97% 30.21 in 10.0 mi Calm Calm - N/A   Clear
8:55 AM 62.4 °F 55.9 °F 79% 30.22 in 10.0 mi Calm Calm - N/A   Clear
9:55 AM 67.8 °F 57.9 °F 71% 30.21 in 10.0 mi SSE 3.5 mph - N/A   Clear
10:55 AM 72.3 °F 57.2 °F 59% 30.18 in 10.0 mi SE 4.6 mph - N/A   Clear
11:55 AM 75.0 °F 55.0 °F 50% 30.14 in 10.0 mi Variable 4.6 mph - N/A   Clear
12:55 PM 74.8 °F 53.4 °F 47% 30.11 in 10.0 mi SSE 3.5 mph - N/A   Clear
1:55 PM 75.6 °F 53.1 °F 45% 30.08 in 10.0 mi SSW 6.9 mph - N/A   Clear
2:55 PM 75.2 °F 51.1 °F 43% 30.08 in 10.0 mi South 4.6 mph - N/A   Partly Cloudy
3:55 PM 72.0 °F 52.3 °F 50% 30.08 in 10.0 mi Calm Calm - N/A   Mostly Cloudy
4:55 PM 65.7 °F 54.3 °F 67% 30.09 in 10.0 mi Calm Calm - N/A   Partly Cloudy
5:55 PM 63.3 °F 53.4 °F 70% 30.09 in 10.0 mi NE 3.5 mph - N/A   Clear
6:55 PM 61.9 °F 53.4 °F 74% 30.09 in 10.0 mi NE 3.5 mph - N/A   Partly Cloudy
7:55 PM 59.0 °F 53.2 °F 81% 30.10 in 10.0 mi Calm Calm - N/A   Scattered Clouds
8:55 PM 59.4 °F 52.7 °F 79% 30.09 in 10.0 mi NNE 3.5 mph - N/A   Clear
9:55 PM 58.8 °F 52.5 °F 80% 30.09 in 10.0 mi NNE 3.5 mph - N/A   Mostly Cloudy
10:55 PM 55.9 °F 52.0 °F 87% 30.09 in 10.0 mi NE 4.6 mph - N/A   Scattered Clouds
11:55 PM 55.4 °F 51.4 °F 87% 30.08 in 10.0 mi NE 5.8 mph - N/A   Partly Cloudy